Preview of NWS' New Version of Forecast
This preview is not operational and should not be used for support decisions.

Regional Weather Roundup (RWR)

Issued by National Weather Service (NWS)

                            
000
ASUS46 KSEW 181310
RWRWA 

WASHINGTON REGIONAL WEATHER ROUNDUP
NATIONAL WEATHER SERVICE SEATTLE WA
500 AM PST MON FEB 18 2019

NOTE:"FAIR" INDICATES FEW OR NO CLOUDS BELOW 12,000 FEET WITH NO 
SIGNIFICANT WEATHER AND/OR OBSTRUCTIONS TO VISIBILITY.

WAZ507-509-555>559-181400-
SEATTLE, TACOMA, EVERETT, AND VICINITY
  
CITY           SKY/WX    TMP DP  RH WIND       PRES   REMARKS
EVERETT        CLOUDY    33  32  96 E5        30.35R FOG              
BOEING FIELD   CLOUDY    35  32  88 SE7       30.38R                  
RENTON         CLOUDY    35  32  88 E3        30.38R                  
SEATAC AIRPORT CLOUDY    36  33  89 SE3       30.36R                  
JBLM-MCCHORD   CLOUDY    32  32 100 CALM      30.37R                  
PUYALLUP       CLOUDY    34  34 100 CALM      30.36R                  
BREMERTON      CLOUDY    32  30  93 CALM      30.36S FOG              
JBLM-FT LEWIS  NOT AVBL                                               
TACOMA NARROWS CLOUDY    37  36  96 CALM      30.37R                  
$$
 
WAZ001-503-506-510-514-515-181400-
NORTH INTERIOR
  
CITY           SKY/WX    TMP DP  RH WIND       PRES   REMARKS
BELLINGHAM     CLOUDY    29  18  63 N6        30.38R                  
FRIDAY HARBOR  MOCLDY    33  22  63 CALM      30.39R                  
EASTSOUND      MOCLDY    36  23  60 VRB5      30.38R                  
PORT ANGELES   CLOUDY    35  33  92 SW6       30.37R                  
EDIZ HOOK      CLOUDY    39  35  85 CALM      30.39R                  
PORT TOWNSEND  MOCLDY    28  28 100 CALM      30.36S                  
NAS WHIDBEY    NOT AVBL                                               
ARLINGTON      CLOUDY    29  28  96 CALM      30.38R                  
BURLINGTON     CLOUDY    30  23  74 N6        30.39R                  
$$
 
WAZ020-022-039-040-504-511-512-181400-
SOUTHWEST INTERIOR
  
CITY           SKY/WX    TMP DP  RH WIND       PRES   REMARKS
SHELTON        CLOUDY    30  28  92 CALM      30.35R                  
OLYMPIA        CLOUDY    30  29  96 CALM      30.37R                  
CHEHALIS       CLOUDY    34  34 100 CALM      30.38R                  
KELSO          FOG       32  30  93 SE3       30.40F VSB 1            
VANCOUVER      FOG       30  30 100 CALM      30.39S VSB 1/2          
SCAPPOOSE, OR  FOG       31  29  92 CALM      30.40R VSB 1/4          
PORTLAND, OR   FOG       32  30  92 W3        30.40S VSB 1/4          
$$
 
WAZ021-516-517-181400-
WASHINGTON COAST
  
CITY           SKY/WX    TMP DP  RH WIND       PRES   REMARKS
FORKS          CLOUDY    31  29  92 E3        30.36R                  
HOQUIAM        CLOUDY    31  30  96 E6        30.37R                  
ASTORIA, OR    CLOUDY    32  31  96 CALM      30.38R                  
$$
 
WAZ019-023-024-040-567>569-181400-
CASCADE MOUNTAINS AND COLUMBIA GORGE
  
CITY           SKY/WX    TMP DP  RH WIND       PRES   REMARKS
STAMPEDE PASS  FOG       23  20  88 W3        30.18S VSB 3/4          
TROUTDALE, OR  CLOUDY    34  31  88 CALM      30.39S                  
HOOD RIVER, OR CLOUDY    32  30  93 CALM      30.36S FOG              
THE DALLES, OR CLOUDY    33  31  92 E5        30.38S FOG              
$$

WAZ026-027-041>044-520-521-181400-
EAST SLOPES
  
CITY           SKY/WX    TMP DP  RH WIND       PRES   REMARKS
OMAK           CLEAR     20  10  65 NW12      30.36R WCI   8          
WENATCHEE      CLOUDY    22  13  68 NE5       30.35R                  
ELLENSBURG     CLOUDY    28  21  75 CALM      30.30R                  
YAKIMA         CLOUDY    25  23  92 W3        30.34S                  
SUNNYSIDE ARPT PTSUNNY   24  18  78 CALM      30.36                   
YAKIMA TC      PTSUNNY   24  21  89 SW5       30.31R                  
$$

WAZ028-034-035-181400-
COLUMBIA BASIN
  
CITY           SKY/WX    TMP DP  RH WIND       PRES   REMARKS
EPHRATA        CLEAR     19   9  65 NW14      30.34R WCI   6          
MOSES LAKE     CLEAR    N/A N/A N/A NW3       30.35R                  
PASCO          PTCLDY    25  20  81 CALM      30.40R                  
RICHLAND ARPT  SUNNY     21  18  88 W3        30.40                   
HERMISTON, OR  PTCLDY    23  16  74 SE3       30.37R                  
$$

WAZ036>038-181400-
NORTHEAST WASHINGTON
  
CITY           SKY/WX    TMP DP  RH WIND       PRES   REMARKS
SPOKANE GEIGER PTCLDY    11   3  70 CALM      30.26R                  
SPOKANE FELTS  PTCLDY     9   5  84 CALM      30.30R                  
FAIRCHILD AFB  PTCLDY     8   1  73 E5        30.24R                  
COEURDALENE,ID CLEAR      6  -1  73 NE7       30.27R                  
DEER PARK      CLEAR     -2  -6  83 NW5       30.28R                  
$$

WAZ029>033-181400-
SOUTHEAST WASHINGTON
  
CITY           SKY/WX    TMP DP  RH WIND       PRES   REMARKS
PULLMAN        CLEAR      7   2  80 CALM      30.22R                  
LEWISTON, ID   PTCLDY    20  12  71 W6        30.28R                  
WALLA WALLA    CLOUDY    26  20  77 S9        30.32R                  
PENDLETON, OR  CLOUDY    25  22  88 CALM      30.30R                  
$$